Hourly Weather Roundup
Issued by NWS Central Illinois

Home | Current Version | Previous Version | Text Only | Print | Product List | Glossary On
Versions: 1 2 3 4 5 6 7 8 9 10 11 12 13 14 15 16 17 18 19 20 21 22 23 24 25 26 27 28 29 30 31 32 33 34 35 36 37 38 39 40 41 42 43 44 45 46 47 48 49 50
000
NZUS43 KILX 202110
HWRILX

AREA WEATHER ROUNDUP
NATIONAL WEATHER SERVICE, LINCOLN IL
400 PM CDT MON OCT 20 2014


CITY           SKY/WX    TMP DP  RH WIND       PRES   REMARKS
BLOOMINGTON    MOSUNNY   67  46  46 NW15      29.91S
CHAMPAIGN      MOSUNNY   68  46  45 NW16G24   29.89R
DECATUR        SUNNY     68  45  43 W12G22    29.91R
FLORA          SUNNY     73  42  32 W14       29.90R
GALESBURG      MOSUNNY   66  44  43 NW15G23   29.94S
JACKSONVILLE   SUNNY     71  43  36 NW13      29.94S
LACON          MOSUNNY   65  42  43 NW15G22   29.91R
LAWRENCEVILLE  SUNNY     73  47  39 W15G22    29.88R
LITCHFIELD     SUNNY     69  41  35 NW15      29.93S
$$


CITY           SKY/WX    TMP DP  RH WIND       PRES   REMARKS
LINCOLN        SUNNY     69  42  37 NW13G20   29.90R
MACOMB         MOSUNNY   68  43  41 NW13      29.97S
MATTOON        SUNNY     68  44  42 NW18      29.88S
MT CARMEL AP   MOSUNNY   75  45  33 NW16G22   29.87S
OLNEY-NOBLE AP SUNNY     72  43  35 W16       29.89S
PARIS          SUNNY     69  46  43 NW10G21   29.88R
PEORIA         MOSUNNY   69  43  38 NW13G18   29.92R
PONTIAC        MOSUNNY   64  45  48 NW9       29.88R
RANTOUL        SUNNY     69  43  40 NW14      29.89R
ROBINSON       SUNNY     75  45  34 NW14G20   29.88S
SPRINGFIELD    SUNNY     70  43  37 NW15G23   29.93R
TAYLORVILLE    SUNNY     68  43  40 NW14G22   29.92R
$$

...REGIONAL REPORTS...


CITY           SKY/WX    TMP DP  RH WIND       PRES   REMARKS
CHICAGO O`HARE PTSUNNY   59  48  67 NE13      29.87R
KANKAKEE       MOSUNNY   65  49  55 NW15G22   29.86R
MOLINE         MOSUNNY   68  43  40 NW14G23   29.92S
MOUNT VERNON   SUNNY     73  46  38 W12       29.91S
PITTSFIELD     SUNNY     70  42  35 NW10G21   29.97S
QUINCY         SUNNY     69  43  38 NW14      29.97R
ROCKFORD       PTSUNNY   64  42  44 N20G25    29.91R
$$


CITY           SKY/WX    TMP DP  RH WIND       PRES   REMARKS
BURLINGTON     SUNNY     69  44  40 NW9       29.96R
CEDAR RAPIDS   SUNNY     68  43  40 NW15      29.94S
DES MOINES     SUNNY     72  38  29 N12       30.00S
KIRKSVILLE     SUNNY     70  44  39 N10       30.00F
OTTUMWA        LGT RAIN  69  44  40 NW13      29.99R
ST LOUIS       MOSUNNY   74  43  32 W16       29.95S
$$


CITY           SKY/WX    TMP DP  RH WIND       PRES   REMARKS
TERRE HAUTE    MOSUNNY   70  43  37 W12G20    29.86S
EVANSVILLE     SUNNY     72  53  51 W14       29.89F
INDIANAPOLIS   MOSUNNY   66  44  45 W16       29.84S
LAFAYETTE      MOSUNNY   66  48  52 NW13      29.84R
MADISON        CLOUDY    57  41  55 N10       29.93R
MILWAUKEE      CLOUDY    55  42  61 N14       29.90R
$$




USA.gov is the U.S. government's official web portal to all federal, state and local government web resources and services.